Time,TemperatureF,DewpointF,PressureIn,WindDirection,WindDirectionDegrees,WindSpeedMPH,WindSpeedGustMPH,Humidity,HourlyPrecipIn,Conditions,Clouds,dailyrainin,SolarRadiationWatts/m^2,SoftwareType,DateUTC
2013-01-01 00:05:00,16.0,14.0,30.40,NNW,327,0.0,3.0,93,0.00,,,0.00,0,weatherlink.com 1.10,2013-01-01 07:05:00,
2013-01-01 00:20:00,15.4,14.0,30.40,North,10,1.0,3.0,93,0.00,,,0.00,0,weatherlink.com 1.10,2013-01-01 07:20:00,
2013-01-01 00:35:00,14.8,13.0,30.39,NNW,339,0.0,2.0,93,0.00,,,0.00,0,weatherlink.com 1.10,2013-01-01 07:35:00,
2013-01-01 00:50:00,14.3,12.0,30.39,NW,325,0.0,3.0,92,0.00,,,0.00,0,weatherlink.com 1.10,2013-01-01 07:50:00,
2013-01-01 01:05:00,11.6,9.0,30.40,NE,43,2.0,3.0,90,0.00,,,0.00,0,weatherlink.com 1.10,2013-01-01 08:05:00,
2013-01-01 01:20:00,10.1,8.0,30.39,NNW,348,1.0,3.0,90,0.00,,,0.00,0,weatherlink.com 1.10,2013-01-01 08:20:00,
2013-01-01 01:35:00,9.2,7.0,30.40,North,355,0.0,3.0,91,0.00,,,0.00,0,weatherlink.com 1.10,2013-01-01 08:35:00,
2013-01-01 01:50:00,8.4,6.0,30.40,NNW,340,2.0,5.0,90,0.00,,,0.00,0,weatherlink.com 1.10,2013-01-01 08:50:00,
2013-01-01 02:05:00,7.4,5.0,30.41,NNW,336,0.0,3.0,90,0.00,,,0.00,0,weatherlink.com 1.10,2013-01-01 09:05:00,
2013-01-01 02:20:00,6.9,5.0,30.41,NNW,342,1.0,1.0,90,0.00,,,0.00,0,weatherlink.com 1.10,2013-01-01 09:20:00,
2013-01-01 02:35:00,6.5,4.0,30.41,NNW,344,0.0,1.0,90,0.00,,,0.00,0,weatherlink.com 1.10,2013-01-01 09:35:00,
2013-01-01 02:50:00,6.7,4.0,30.41,NNW,344,0.0,0.0,90,0.00,,,0.00,0,weatherlink.com 1.10,2013-01-01 09:50:00,
2013-01-01 03:05:00,7.2,5.0,30.41,NNW,344,0.0,0.0,90,0.00,,,0.00,0,weatherlink.com 1.10,2013-01-01 10:05:00,
2013-01-01 03:20:00,7.6,6.0,30.41,NNW,344,0.0,0.0,91,0.00,,,0.00,0,weatherlink.com 1.10,2013-01-01 10:20:00,
2013-01-01 03:35:00,8.1,6.0,30.41,NNW,344,0.0,0.0,90,0.00,,,0.00,0,weatherlink.com 1.10,2013-01-01 10:35:00,
2013-01-01 03:50:00,8.3,6.0,30.41,NNW,344,0.0,0.0,90,0.00,,,0.00,0,weatherlink.com 1.10,2013-01-01 10:50:00,
2013-01-01 04:05:00,9.1,7.0,30.41,NNW,332,0.0,1.0,91,0.00,,,0.00,0,weatherlink.com 1.10,2013-01-01 11:05:00,
2013-01-01 04:20:00,9.0,7.0,30.40,NW,310,0.0,2.0,91,0.00,,,0.00,0,weatherlink.com 1.10,2013-01-01 11:20:00,
2013-01-01 04:35:00,8.3,6.0,30.40,WNW,289,1.0,1.0,90,0.00,,,0.00,0,weatherlink.com 1.10,2013-01-01 11:35:00,
2013-01-01 04:50:00,7.1,5.0,30.40,NW,304,0.0,3.0,89,0.00,,,0.00,0,weatherlink.com 1.10,2013-01-01 11:50:00,
2013-01-01 05:05:00,6.1,4.0,30.39,NW,323,0.0,2.0,89,0.00,,,0.00,0,weatherlink.com 1.10,2013-01-01 12:05:00,
2013-01-01 05:21:00,5.7,3.0,30.38,NW,314,0.0,1.0,89,0.00,,,0.00,0,weatherlink.com 1.10,2013-01-01 12:21:00,
2013-01-01 05:36:00,-999.0,-99.9,30.39,North,-999,-999.0,-999.0,-999,0.00,,,0.00,,weatherlink.com 1.10,2013-01-01 12:36:00,
2013-01-01 05:51:00,-999.0,-99.9,30.38,North,-999,-999.0,-999.0,-999,0.00,,,0.00,,weatherlink.com 1.10,2013-01-01 12:51:00,
2013-01-01 06:06:00,-999.0,-99.9,30.38,North,-999,-999.0,-999.0,-999,0.00,,,0.00,,weatherlink.com 1.10,2013-01-01 13:06:00,
2013-01-01 06:21:00,-999.0,-99.9,30.38,North,-999,-999.0,-999.0,-999,0.00,,,0.00,,weatherlink.com 1.10,2013-01-01 13:21:00,
2013-01-01 06:36:00,-999.0,-99.9,30.37,North,-999,-999.0,-999.0,-999,0.00,,,0.00,,weatherlink.com 1.10,2013-01-01 13:36:00,
2013-01-01 06:51:00,-999.0,-99.9,30.37,North,-999,-999.0,-999.0,-999,0.00,,,0.00,,weatherlink.com 1.10,2013-01-01 13:51:00,
2013-01-01 07:06:00,-999.0,-99.9,30.36,North,-999,-999.0,-999.0,-999,0.00,,,0.00,,weatherlink.com 1.10,2013-01-01 14:06:00,
2013-01-01 07:21:00,-999.0,-99.9,30.36,North,-999,-999.0,-999.0,-999,0.00,,,0.00,,weatherlink.com 1.10,2013-01-01 14:21:00,
2013-01-01 07:36:00,-999.0,-99.9,30.36,North,-999,-999.0,-999.0,-999,0.00,,,0.00,,weatherlink.com 1.10,2013-01-01 14:36:00,
2013-01-01 07:51:00,-999.0,-99.9,30.36,North,-999,-999.0,-999.0,-999,0.00,,,0.00,,weatherlink.com 1.10,2013-01-01 14:51:00,
2013-01-01 08:06:00,-999.0,-99.9,30.34,North,-999,-999.0,-999.0,-999,0.00,,,0.00,,weatherlink.com 1.10,2013-01-01 15:06:00,
2013-01-01 08:21:00,-0.5,-3.0,30.34,WNW,303,0.0,1.0,88,0.00,,,0.00,14,weatherlink.com 1.10,2013-01-01 15:21:00,
2013-01-01 08:36:00,0.3,-2.0,30.37,NNW,328,0.0,2.0,88,0.00,,,0.00,32,weatherlink.com 1.10,2013-01-01 15:36:00,
2013-01-01 08:52:00,1.3,-1.0,30.37,NNW,329,1.0,2.0,88,0.00,,,0.00,39,weatherlink.com 1.10,2013-01-01 15:52:00,
2013-01-01 09:07:00,2.9,0.0,30.38,NW,309,0.0,1.0,89,0.00,,,0.00,51,weatherlink.com 1.10,2013-01-01 16:07:00,
2013-01-01 09:22:00,4.5,2.0,30.39,NW,323,1.0,2.0,89,0.00,,,0.00,65,weatherlink.com 1.10,2013-01-01 16:22:00,
2013-01-01 09:37:00,5.0,3.0,30.38,WNW,294,2.0,3.0,89,0.00,,,0.00,76,weatherlink.com 1.10,2013-01-01 16:37:00,
2013-01-01 09:52:00,5.8,3.0,30.39,NW,305,0.0,4.0,89,0.00,,,0.00,100,weatherlink.com 1.10,2013-01-01 16:52:00,
2013-01-01 10:07:00,6.7,4.0,30.39,West,275,1.0,4.0,90,0.00,,,0.00,171,weatherlink.com 1.10,2013-01-01 17:07:00,
2013-01-01 10:22:00,8.6,6.0,30.40,NW,322,3.0,4.0,90,0.00,,,0.00,225,weatherlink.com 1.10,2013-01-01 17:22:00,
2013-01-01 10:37:00,10.9,9.0,30.39,WNW,285,5.0,7.0,91,0.00,,,0.00,139,weatherlink.com 1.10,2013-01-01 17:37:00,
2013-01-01 10:52:00,11.7,10.0,30.38,West,281,2.0,5.0,91,0.00,,,0.00,125,weatherlink.com 1.10,2013-01-01 17:52:00,
2013-01-01 11:07:00,12.2,10.0,30.37,WNW,282,5.0,7.0,91,0.00,,,0.00,104,weatherlink.com 1.10,2013-01-01 18:07:00,
2013-01-01 11:22:00,12.3,10.0,30.37,NW,317,3.0,7.0,91,0.00,,,0.00,93,weatherlink.com 1.10,2013-01-01 18:22:00,
2013-01-01 11:37:00,12.4,10.0,30.37,WNW,302,3.0,8.0,91,0.00,,,0.00,118,weatherlink.com 1.10,2013-01-01 18:37:00,
2013-01-01 11:52:00,13.2,11.0,30.37,West,267,4.0,11.0,91,0.00,,,0.00,142,weatherlink.com 1.10,2013-01-01 18:52:00,
2013-01-01 12:08:00,14.4,13.0,30.36,NW,319,9.0,10.0,92,0.00,,,0.00,183,weatherlink.com 1.10,2013-01-01 19:08:00,
2013-01-01 12:23:00,15.1,13.0,30.36,WNW,298,6.0,9.0,92,0.00,,,0.00,155,weatherlink.com 1.10,2013-01-01 19:23:00,
2013-01-01 12:38:00,15.4,14.0,30.35,WNW,297,5.0,10.0,92,0.00,,,0.00,142,weatherlink.com 1.10,2013-01-01 19:38:00,
2013-01-01 12:53:00,15.4,14.0,30.35,NW,309,8.0,12.0,92,0.00,,,0.00,137,weatherlink.com 1.10,2013-01-01 19:53:00,
2013-01-01 13:08:00,15.6,14.0,30.35,NNW,331,8.0,13.0,92,0.00,,,0.00,155,weatherlink.com 1.10,2013-01-01 20:08:00,
2013-01-01 13:23:00,15.8,14.0,30.35,NW,311,8.0,14.0,92,0.00,,,0.00,113,weatherlink.com 1.10,2013-01-01 20:23:00,
2013-01-01 13:38:00,15.8,14.0,30.35,NW,311,7.0,13.0,92,0.00,,,0.00,114,weatherlink.com 1.10,2013-01-01 20:38:00,
2013-01-01 13:53:00,16.8,15.0,30.36,NW,316,8.0,12.0,93,0.00,,,0.00,132,weatherlink.com 1.10,2013-01-01 20:53:00,
2013-01-01 14:08:00,18.1,16.0,30.36,NW,317,9.0,12.0,93,0.00,,,0.00,114,weatherlink.com 1.10,2013-01-01 21:08:00,
2013-01-01 14:23:00,19.1,17.0,30.36,NW,325,9.0,9.0,93,0.00,,,0.00,137,weatherlink.com 1.10,2013-01-01 21:23:00,
2013-01-01 14:38:00,20.3,19.0,30.36,NW,319,6.0,13.0,94,0.00,,,0.00,104,weatherlink.com 1.10,2013-01-01 21:38:00,
2013-01-01 15:08:00,20.5,19.0,30.37,NW,320,8.0,11.0,93,0.00,,,0.00,91,weatherlink.com 1.10,2013-01-01 22:08:00,
2013-01-01 15:24:00,20.7,19.0,30.37,NW,315,5.0,9.0,93,0.00,,,0.00,54,weatherlink.com 1.10,2013-01-01 22:24:00,
2013-01-01 15:39:00,20.2,19.0,30.38,NW,308,2.0,6.0,93,0.00,,,0.00,53,weatherlink.com 1.10,2013-01-01 22:39:00,
2013-01-01 15:54:00,20.6,19.0,30.38,NW,317,3.0,8.0,94,0.00,,,0.00,26,weatherlink.com 1.10,2013-01-01 22:54:00,
2013-01-01 16:09:00,20.2,19.0,30.38,WNW,300,4.0,7.0,93,0.00,,,0.00,11,weatherlink.com 1.10,2013-01-01 23:09:00,
2013-01-01 16:24:00,18.8,17.0,30.38,WNW,301,5.0,8.0,92,0.00,,,0.00,5,weatherlink.com 1.10,2013-01-01 23:24:00,
2013-01-01 16:39:00,17.7,16.0,30.39,NW,317,6.0,7.0,92,0.00,,,0.00,0,weatherlink.com 1.10,2013-01-01 23:39:00,
2013-01-01 16:54:00,19.3,18.0,30.39,NW,304,7.0,11.0,95,0.00,,,0.00,0,weatherlink.com 1.10,2013-01-01 23:54:00,
2013-01-01 17:09:00,19.6,18.0,30.40,NW,304,8.0,12.0,93,0.00,,,0.00,0,weatherlink.com 1.10,2013-01-02 00:09:00,
2013-01-01 17:24:00,17.2,15.0,30.39,NW,315,5.0,9.0,92,0.00,,,0.00,0,weatherlink.com 1.10,2013-01-02 00:24:00,
2013-01-01 17:39:00,20.3,19.0,30.39,NW,317,4.0,9.0,95,0.00,,,0.00,0,weatherlink.com 1.10,2013-01-02 00:39:00,
2013-01-01 17:54:00,23.3,22.0,30.38,WNW,293,8.0,10.0,95,0.00,,,0.00,0,weatherlink.com 1.10,2013-01-02 00:54:00,
2013-01-01 18:09:00,23.1,22.0,30.40,WNW,300,6.0,11.0,94,0.00,,,0.00,0,weatherlink.com 1.10,2013-01-02 01:09:00,
2013-01-01 18:24:00,24.2,23.0,30.40,WNW,290,7.0,11.0,95,0.00,,,0.00,0,weatherlink.com 1.10,2013-01-02 01:24:00,
2013-01-01 18:39:00,27.3,26.0,30.40,NW,311,9.0,14.0,95,0.00,,,0.00,0,weatherlink.com 1.10,2013-01-02 01:39:00,
2013-01-01 18:55:00,28.0,26.0,30.40,NNW,331,9.0,17.0,93,0.00,,,0.00,0,weatherlink.com 1.10,2013-01-02 01:55:00,
2013-01-01 19:10:00,27.6,26.0,30.40,NW,325,9.0,13.0,92,0.00,,,0.00,0,weatherlink.com 1.10,2013-01-02 02:10:00,
2013-01-01 19:25:00,27.4,25.0,30.40,NW,306,13.0,13.0,92,0.00,,,0.00,0,weatherlink.com 1.10,2013-01-02 02:25:00,
2013-01-01 19:40:00,27.8,26.0,30.40,West,278,9.0,15.0,92,0.00,,,0.00,0,weatherlink.com 1.10,2013-01-02 02:40:00,
2013-01-01 19:55:00,27.9,25.0,30.40,WNW,300,10.0,16.0,90,0.00,,,0.00,0,weatherlink.com 1.10,2013-01-02 02:55:00,
2013-01-01 20:10:00,27.6,25.0,30.40,West,265,8.0,17.0,90,0.00,,,0.00,0,weatherlink.com 1.10,2013-01-02 03:10:00,
2013-01-01 20:25:00,27.4,25.0,30.39,WNW,289,9.0,14.0,90,0.00,,,0.00,0,weatherlink.com 1.10,2013-01-02 03:25:00,
2013-01-01 20:40:00,28.1,25.0,30.40,NW,322,8.0,17.0,89,0.00,,,0.00,0,weatherlink.com 1.10,2013-01-02 03:40:00,
2013-01-01 20:55:00,28.4,25.0,30.41,WNW,302,10.0,16.0,87,0.00,,,0.00,0,weatherlink.com 1.10,2013-01-02 03:55:00,
2013-01-01 21:10:00,28.6,25.0,30.41,NW,308,14.0,19.0,85,0.00,,,0.00,0,weatherlink.com 1.10,2013-01-02 04:10:00,
2013-01-01 21:25:00,28.1,24.0,30.41,WNW,300,11.0,21.0,85,0.00,,,0.00,0,weatherlink.com 1.10,2013-01-02 04:25:00,
2013-01-01 21:40:00,27.9,24.0,30.41,NW,309,11.0,21.0,84,0.00,,,0.00,0,weatherlink.com 1.10,2013-01-02 04:40:00,
2013-01-01 21:55:00,27.6,24.0,30.41,NW,319,8.0,17.0,85,0.00,,,0.00,0,weatherlink.com 1.10,2013-01-02 04:55:00,
2013-01-01 22:11:00,27.1,23.0,30.42,NW,318,9.0,16.0,85,0.00,,,0.00,0,weatherlink.com 1.10,2013-01-02 05:11:00,
2013-01-01 22:26:00,27.0,23.0,30.42,NNW,327,5.0,11.0,84,0.00,,,0.00,0,weatherlink.com 1.10,2013-01-02 05:26:00,
2013-01-01 22:41:00,26.5,23.0,30.42,WNW,299,10.0,11.0,86,0.00,,,0.00,0,weatherlink.com 1.10,2013-01-02 05:41:00,
2013-01-01 22:56:00,26.7,24.0,30.42,NW,314,14.0,19.0,88,0.00,,,0.00,0,weatherlink.com 1.10,2013-01-02 05:56:00,
2013-01-01 23:11:00,26.7,23.0,30.42,NNW,336,13.0,19.0,87,0.00,,,0.00,0,weatherlink.com 1.10,2013-01-02 06:11:00,
2013-01-01 23:26:00,26.9,23.0,30.43,NW,314,10.0,19.0,86,0.00,,,0.00,0,weatherlink.com 1.10,2013-01-02 06:26:00,
2013-01-01 23:41:00,27.1,23.0,30.43,WNW,292,16.0,19.0,85,0.00,,,0.00,0,weatherlink.com 1.10,2013-01-02 06:41:00,
2013-01-01 23:56:00,27.0,23.0,30.42,NNW,331,12.0,21.0,84,0.00,,,0.00,0,weatherlink.com 1.10,2013-01-02 06:56:00,